Tracking 21470 objects as of 23-Sep-2020
HD Live streaming from Space Station
objects crossing your sky now

STARLINK-1364

Track STARLINK-1364 now!
10-day predictions
STARLINK-1364 is classified as:


NORAD ID: 45589
Int'l Code: 2020-025BL
Perigee: 556.1 km
Apogee: 557.6 km
Inclination: 53.0 °
Period: 95.6 minutes
Semi major axis: 6927 km
RCS: Unknown
Launch date: April 22, 2020
Source: United States (US)
Launch site: AIR FORCE EASTERN TEST RANGE (AFETR)
aabbcc
Your satellite tracking list
Your tracking list is empty




NASA's NSSDC Master Catalog

Two Line Element Set (TLE):
1 45589U 20025BL  20267.16667824 -.00003856  00000-0 -24559-3 0  9999
2 45589  52.9929  25.9292 0001138  93.4998 284.2613 15.05587174 24446
Source of the keplerian elements: AFSPC